Regional Weather Roundup
Issued by NWS

Home | Current Version | Previous Version | Graphics & Text | Print | Product List | Glossary Off
Versions: 1 2 3 4 5 6 7 8 9 10 11 12 13 14 15 16 17 18 19 20 21 22 23 24 25 26 27 28 29 30 31 32 33 34 35 36 37 38 39 40 41 42 43 44 45 46 47 48 49 50

000
ASUS43 KTOP 230808
RWRKS

WEATHER ROUNDUP FOR KANSAS
NATIONAL WEATHER SERVICE GOODLAND KS
300 AM CDT SUN JUL 23 2017

NOTE:  "FAIR" INDICATES FEW OR NO CLOUDS BELOW 12,000 FEET WITH NO
SIGNIFICANT WEATHER AND/OR OBSTRUCTIONS TO VISIBILITY.

KSZ001>006-013>018-027>032-041>047-230900-
NORTHWEST KANSAS

CITY           SKY/WX    TMP DP  RH WIND       PRES   REMARKS
GOODLAND       MOCLDY    62  55  77 W6        30.11S
HAYS           CLOUDY    70  67  90 W6        29.99S
HILL CITY      CLEAR     69  68  96 CALM      30.01F
RUSSELL        PTCLDY    71  67  87 W7        29.97S
$$

KSZ061>065-074>080-084>089-230900-
SOUTHWEST KANSAS

CITY           SKY/WX    TMP DP  RH WIND       PRES   REMARKS
DODGE CITY     CLOUDY    72  65  78 E6        29.98F
ELKHART          N/A     69  55  60 NE3         N/A
GARDEN CITY    CLOUDY    71  64  78 NW6       30.04S
LIBERAL        LGT RAIN  70  67  90 N16       30.05R
PRATT          CLOUDY    72  62  71 N8        29.95F
$$

KSZ066>073-081>083-090>101-230900-
SOUTHEAST KANSAS

CITY           SKY/WX    TMP DP  RH WIND       PRES   REMARKS
CHANUTE        TSTM      72  69  90 E8        29.96F FOG
COFFEYVILLE    CLOUDY    77  66  68 NE12      29.94F
HUTCHINSON     CLOUDY    75  65  70 SE13      29.91S
MEDICINE LODGE   N/A     76  65  68 E12       29.88F
NEWTON         TSTM      70  64  83 E16G24    29.93F
PARSONS        CLOUDY    75  66  73 NE5       29.96F
WICHITA INTL   MOCLDY    72  69  90 E14       29.92F
WICHITA JABRA  CLOUDY    70  68  93 SE6       29.93S
WICHITA MCCONL CLOUDY    71  67  87 SE7       29.92F
WINFIELD       CLEAR     75  68  78 E10       29.92F
$$

KSZ007>012-019>026-033>040-048>060-102>105-230900-
NORTHEAST KANSAS

CITY           SKY/WX    TMP DP  RH WIND       PRES   REMARKS
CONCORDIA      CLOUDY    68  68 100 SW7       29.95R
EMPORIA        LGT RAIN  75  65  70 SE15      29.89F
LAWRENCE       LGT RAIN  73  71  93 SE8       29.94R
MANHATTAN      CLOUDY    72  68  87 SW6       29.92R
MARYSVILLE     CLEAR     70  68  94 NE3       29.92S
OLATHE IND     CLOUDY    71  68  90 S7        29.95R
OLATHE EXE     CLOUDY    69  69 100 S5        29.94R
SALINA         CLOUDY    76  67  73 VRB3      29.90F
TOPEKA BILLARD CLOUDY    73  73 100 S5        29.94R
TOPEKA FORBES  CLOUDY    75  70  84 SE9       29.92R
$$




USA.gov is the U.S. government's official web portal to all federal, state and local government web resources and services.